Time,TemperatureF,DewpointF,PressureIn,WindDirection,WindDirectionDegrees,WindSpeedMPH,WindSpeedGustMPH,Humidity,HourlyPrecipIn,Conditions,Clouds,dailyrainin,SolarRadiationWatts/m^2,SoftwareType,DateUTC
2013-06-28 00:02:00,60.4,28.0,29.80,WSW,246,0.0,1.0,29,0.00,,,0.00,0,Wunderground v.1.15,2013-06-28 07:02:00,
2013-06-28 00:12:00,61.7,28.2,29.80,WSW,246,0.0,0.0,28,0.00,,,0.00,0,Wunderground v.1.15,2013-06-28 07:12:00,
2013-06-28 00:22:00,62.1,27.7,29.80,West,264,0.0,0.0,27,0.00,,,0.00,0,Wunderground v.1.15,2013-06-28 07:22:00,
2013-06-28 00:32:00,61.6,28.1,29.80,West,264,0.0,0.0,28,0.00,,,0.00,0,Wunderground v.1.15,2013-06-28 07:32:00,
2013-06-28 00:42:00,61.8,28.3,29.81,West,264,0.0,0.0,28,0.00,,,0.00,0,Wunderground v.1.15,2013-06-28 07:42:00,
2013-06-28 00:52:00,60.8,27.5,29.81,West,264,0.0,0.0,28,0.00,,,0.00,0,Wunderground v.1.15,2013-06-28 07:52:00,
2013-06-28 01:02:00,61.4,28.0,29.81,West,260,0.0,0.0,28,0.00,,,0.00,0,Wunderground v.1.15,2013-06-28 08:02:00,
2013-06-28 01:12:00,61.0,28.5,29.81,West,260,0.0,0.0,29,0.00,,,0.00,0,Wunderground v.1.15,2013-06-28 08:12:00,
2013-06-28 01:22:00,60.7,28.2,29.81,West,260,0.0,0.0,29,0.00,,,0.00,0,Wunderground v.1.15,2013-06-28 08:22:00,
2013-06-28 01:32:00,61.0,28.5,29.81,West,260,0.0,0.0,29,0.00,,,0.00,0,Wunderground v.1.15,2013-06-28 08:32:00,
2013-06-28 01:42:00,60.1,28.5,29.81,West,259,0.0,3.0,30,0.00,,,0.00,0,Wunderground v.1.15,2013-06-28 08:42:00,
2013-06-28 01:52:00,60.2,28.6,29.80,WSW,257,1.0,1.0,30,0.00,,,0.00,0,Wunderground v.1.15,2013-06-28 08:52:00,
2013-06-28 02:02:00,60.0,28.4,29.80,WSW,257,0.0,0.0,30,0.00,,,0.00,0,Wunderground v.1.15,2013-06-28 09:02:00,
2013-06-28 02:12:00,60.6,28.1,29.80,WSW,257,0.0,1.0,29,0.00,,,0.00,0,Wunderground v.1.15,2013-06-28 09:12:00,
2013-06-28 02:22:00,61.2,27.8,29.80,WSW,257,0.0,0.0,28,0.00,,,0.00,0,Wunderground v.1.15,2013-06-28 09:22:00,
2013-06-28 02:32:00,61.3,28.7,29.80,WSW,257,0.0,0.0,29,0.00,,,0.00,0,Wunderground v.1.15,2013-06-28 09:32:00,
2013-06-28 02:42:00,61.8,28.3,29.80,WSW,257,0.0,0.0,28,0.00,,,0.00,0,Wunderground v.1.15,2013-06-28 09:42:00,
2013-06-28 02:52:00,60.0,29.2,29.80,WSW,257,0.0,0.0,31,0.00,,,0.00,0,Wunderground v.1.15,2013-06-28 09:52:00,
2013-06-28 03:02:00,60.4,28.8,29.80,WSW,257,0.0,0.0,30,0.00,,,0.00,0,Wunderground v.1.15,2013-06-28 10:02:00,
2013-06-28 03:12:00,60.1,29.3,29.80,WNW,290,0.0,2.0,31,0.00,,,0.00,0,Wunderground v.1.15,2013-06-28 10:12:00,
2013-06-28 03:22:00,63.3,30.5,29.80,NW,325,1.0,2.0,29,0.00,,,0.00,0,Wunderground v.1.15,2013-06-28 10:22:00,
2013-06-28 03:32:00,66.5,30.5,29.80,NW,308,1.0,2.0,26,0.00,,,0.00,0,Wunderground v.1.15,2013-06-28 10:32:00,
2013-06-28 03:42:00,67.2,31.1,29.80,NW,320,2.0,2.0,26,0.00,,,0.00,0,Wunderground v.1.15,2013-06-28 10:42:00,
2013-06-28 03:52:00,66.9,30.9,29.80,NNW,330,3.0,4.0,26,0.00,,,0.00,0,Wunderground v.1.15,2013-06-28 10:52:00,
2013-06-28 04:02:00,67.4,32.2,29.80,NNW,334,2.0,2.0,27,0.00,,,0.00,0,Wunderground v.1.15,2013-06-28 11:02:00,
2013-06-28 04:12:00,67.5,32.3,29.80,NW,325,2.0,2.0,27,0.00,,,0.00,0,Wunderground v.1.15,2013-06-28 11:12:00,
2013-06-28 04:22:00,68.4,32.1,29.80,NW,309,2.0,2.0,26,0.00,,,0.00,0,Wunderground v.1.15,2013-06-28 11:22:00,
2013-06-28 04:32:00,69.5,32.1,29.79,WNW,300,3.0,3.0,25,0.00,,,0.00,0,Wunderground v.1.15,2013-06-28 11:32:00,
2013-06-28 04:42:00,68.6,32.3,29.79,WNW,296,2.0,3.0,26,0.00,,,0.00,0,Wunderground v.1.15,2013-06-28 11:42:00,
2013-06-28 04:52:00,69.0,32.7,29.79,WNW,296,2.0,2.0,26,0.00,,,0.00,0,Wunderground v.1.15,2013-06-28 11:52:00,
2013-06-28 05:02:00,69.5,33.1,29.79,WNW,289,2.0,4.0,26,0.00,,,0.00,0,Wunderground v.1.15,2013-06-28 12:02:00,
2013-06-28 05:12:00,68.6,32.3,29.79,WNW,290,2.0,2.0,26,0.00,,,0.00,0,Wunderground v.1.15,2013-06-28 12:12:00,
2013-06-28 05:22:00,64.4,32.3,29.80,WNW,290,0.0,0.0,30,0.00,,,0.00,7,Wunderground v.1.15,2013-06-28 12:22:00,
2013-06-28 05:32:00,63.6,32.4,29.79,WNW,289,0.0,0.0,31,0.00,,,0.00,12,Wunderground v.1.15,2013-06-28 12:32:00,
2013-06-28 05:42:00,64.2,34.5,29.79,WNW,289,0.0,0.0,33,0.00,,,0.00,18,Wunderground v.1.15,2013-06-28 12:42:00,
2013-06-28 05:52:00,64.5,34.7,29.80,WNW,289,0.0,0.0,33,0.00,,,0.00,21,Wunderground v.1.15,2013-06-28 12:52:00,
2013-06-28 06:02:00,65.2,36.8,29.80,WNW,289,0.0,0.0,35,0.00,,,0.00,25,Wunderground v.1.15,2013-06-28 13:02:00,
2013-06-28 06:12:00,64.9,36.6,29.79,WNW,290,0.0,0.0,35,0.00,,,0.00,28,Wunderground v.1.15,2013-06-28 13:12:00,
2013-06-28 06:22:00,67.9,38.5,29.79,WNW,290,0.0,0.0,34,0.00,,,0.00,30,Wunderground v.1.15,2013-06-28 13:22:00,
2013-06-28 06:32:00,72.8,39.5,29.79,WNW,290,0.0,0.0,30,0.00,,,0.00,32,Wunderground v.1.15,2013-06-28 13:32:00,
2013-06-28 06:42:00,73.3,43.2,29.79,NW,306,0.0,0.0,34,0.00,,,0.00,33,Wunderground v.1.15,2013-06-28 13:42:00,
2013-06-28 06:52:00,76.8,41.2,29.79,NW,306,0.0,0.0,28,0.00,,,0.00,35,Wunderground v.1.15,2013-06-28 13:52:00,
2013-06-28 07:02:00,79.7,38.6,29.79,North,4,2.0,4.0,23,0.00,,,0.00,70,Wunderground v.1.15,2013-06-28 14:02:00,
2013-06-28 07:12:00,81.8,35.5,29.79,North,353,4.0,5.0,19,0.00,,,0.00,40,Wunderground v.1.15,2013-06-28 14:12:00,
2013-06-28 07:22:00,82.9,35.0,29.79,North,353,6.0,6.0,18,0.00,,,0.00,174,Wunderground v.1.15,2013-06-28 14:22:00,
2013-06-28 07:32:00,84.0,35.9,29.80,North,350,5.0,9.0,18,0.00,,,0.00,345,Wunderground v.1.15,2013-06-28 14:32:00,
2013-06-28 07:42:00,84.8,35.1,29.80,North,9,7.0,7.0,17,0.00,,,0.00,374,Wunderground v.1.15,2013-06-28 14:42:00,
2013-06-28 07:52:00,85.2,35.5,29.80,North,357,7.0,7.0,17,0.00,,,0.00,408,Wunderground v.1.15,2013-06-28 14:52:00,
2013-06-28 08:02:00,86.1,34.7,29.79,North,8,6.0,6.0,16,0.00,,,0.00,439,Wunderground v.1.15,2013-06-28 15:02:00,
2013-06-28 08:12:00,86.8,35.2,29.79,NNW,334,6.0,6.0,16,0.00,,,0.00,473,Wunderground v.1.15,2013-06-28 15:12:00,
2013-06-28 08:22:00,87.5,35.8,29.79,NNW,345,7.0,7.0,16,0.00,,,0.00,503,Wunderground v.1.15,2013-06-28 15:22:00,
2013-06-28 08:32:00,87.9,34.5,29.78,NNW,330,8.0,8.0,15,0.00,,,0.00,534,Wunderground v.1.15,2013-06-28 15:32:00,
2013-06-28 08:42:00,88.3,33.1,29.78,North,6,8.0,8.0,14,0.00,,,0.00,566,Wunderground v.1.15,2013-06-28 15:42:00,
2013-06-28 08:52:00,88.9,33.5,29.78,NNW,345,6.0,9.0,14,0.00,,,0.00,594,Wunderground v.1.15,2013-06-28 15:52:00,
2013-06-28 09:02:00,89.9,34.3,29.77,NW,320,6.0,6.0,14,0.00,,,0.00,626,Wunderground v.1.15,2013-06-28 16:02:00,
2013-06-28 09:12:00,90.4,34.7,29.77,North,358,6.0,6.0,14,0.00,,,0.00,654,Wunderground v.1.15,2013-06-28 16:12:00,
2013-06-28 09:22:00,90.0,32.5,29.77,NE,48,5.0,5.0,13,0.00,,,0.00,682,Wunderground v.1.15,2013-06-28 16:22:00,
2013-06-28 09:32:00,90.0,32.5,29.77,NE,43,4.0,5.0,13,0.00,,,0.00,708,Wunderground v.1.15,2013-06-28 16:32:00,
2013-06-28 09:42:00,90.2,32.7,29.77,NE,34,3.0,3.0,13,0.00,,,0.00,737,Wunderground v.1.15,2013-06-28 16:42:00,
2013-06-28 09:52:00,90.7,31.1,29.77,NE,48,3.0,3.0,12,0.00,,,0.00,763,Wunderground v.1.15,2013-06-28 16:52:00,
2013-06-28 10:02:00,91.2,33.5,29.77,North,11,5.0,7.0,13,0.00,,,0.00,786,Wunderground v.1.15,2013-06-28 17:02:00,
2013-06-28 10:12:00,91.6,33.8,29.76,NNE,16,5.0,5.0,13,0.00,,,0.00,807,Wunderground v.1.15,2013-06-28 17:12:00,
2013-06-28 10:22:00,91.6,31.8,29.76,NE,51,5.0,5.0,12,0.00,,,0.00,817,Wunderground v.1.15,2013-06-28 17:22:00,
2013-06-28 10:32:00,92.3,32.3,29.76,ENE,64,5.0,5.0,12,0.00,,,0.00,853,Wunderground v.1.15,2013-06-28 17:32:00,
2013-06-28 10:42:00,92.8,34.7,29.76,North,358,5.0,11.0,13,0.00,,,0.00,872,Wunderground v.1.15,2013-06-28 17:42:00,
2013-06-28 10:52:00,92.6,32.6,29.75,NE,39,6.0,6.0,12,0.00,,,0.00,891,Wunderground v.1.15,2013-06-28 17:52:00,
2013-06-28 20:42:00,79.7,32.4,29.68,NNW,330,0.0,0.0,18,0.00,,,0.00,0,Wunderground v.1.15,2013-06-29 03:42:00,
2013-06-28 20:52:00,77.7,30.8,29.68,West,264,1.0,1.0,18,0.00,,,0.00,0,Wunderground v.1.15,2013-06-29 03:52:00,
2013-06-28 21:02:00,78.6,31.5,29.69,WSW,248,3.0,3.0,18,0.00,,,0.00,0,Wunderground v.1.15,2013-06-29 04:02:00,
2013-06-28 21:12:00,79.6,32.3,29.68,NW,305,1.0,5.0,18,0.00,,,0.00,0,Wunderground v.1.15,2013-06-29 04:12:00,
2013-06-28 21:22:00,81.3,30.8,29.68,WNW,288,5.0,5.0,16,0.00,,,0.00,0,Wunderground v.1.15,2013-06-29 04:22:00,
2013-06-28 21:32:00,82.3,31.6,29.68,WNW,296,6.0,6.0,16,0.00,,,0.00,0,Wunderground v.1.15,2013-06-29 04:32:00,
2013-06-28 21:42:00,82.5,31.8,29.68,WNW,282,6.0,6.0,16,0.00,,,0.00,0,Wunderground v.1.15,2013-06-29 04:42:00,
2013-06-28 21:52:00,82.4,31.7,29.68,NNW,330,6.0,6.0,16,0.00,,,0.00,0,Wunderground v.1.15,2013-06-29 04:52:00,
2013-06-28 22:02:00,82.2,31.5,29.68,WNW,297,6.0,8.0,16,0.00,,,0.00,0,Wunderground v.1.15,2013-06-29 05:02:00,
2013-06-28 22:12:00,82.6,31.8,29.68,WNW,292,7.0,7.0,16,0.00,,,0.00,0,Wunderground v.1.15,2013-06-29 05:12:00,
2013-06-28 22:22:00,82.7,31.9,29.67,WNW,290,7.0,7.0,16,0.00,,,0.00,0,Wunderground v.1.15,2013-06-29 05:22:00,
2013-06-28 22:32:00,83.0,32.2,29.67,West,270,7.0,7.0,16,0.00,,,0.00,0,Wunderground v.1.15,2013-06-29 05:32:00,
2013-06-28 22:42:00,83.0,30.6,29.67,WNW,294,6.0,6.0,15,0.00,,,0.00,0,Wunderground v.1.15,2013-06-29 05:42:00,
2013-06-28 22:52:00,83.0,30.6,29.67,NNW,336,6.0,11.0,15,0.00,,,0.00,0,Wunderground v.1.15,2013-06-29 05:52:00,
2013-06-28 23:02:00,82.9,32.1,29.67,North,3,7.0,7.0,16,0.00,,,0.00,0,Wunderground v.1.15,2013-06-29 06:02:00,
2013-06-28 23:12:00,81.6,31.0,29.67,NNW,338,5.0,7.0,16,0.00,,,0.00,0,Wunderground v.1.15,2013-06-29 06:12:00,
2013-06-28 23:22:00,81.2,32.2,29.67,NNW,342,5.0,5.0,17,0.00,,,0.00,0,Wunderground v.1.15,2013-06-29 06:22:00,
2013-06-28 23:32:00,80.0,32.7,29.67,NW,325,2.0,3.0,18,0.00,,,0.00,0,Wunderground v.1.15,2013-06-29 06:32:00,
2013-06-28 23:42:00,78.7,31.6,29.66,NW,325,1.0,1.0,18,0.00,,,0.00,0,Wunderground v.1.15,2013-06-29 06:42:00,
2013-06-28 23:52:00,77.4,31.9,29.67,NW,325,0.0,0.0,19,0.00,,,0.00,0,Wunderground v.1.15,2013-06-29 06:52:00,